Terminal Aerodrome Forecast
Issued by NWS

Home | Current Version | Previous Version | Text Only | Print | Product List | Glossary On
Versions: 1 2 3 4 5 6 7 8 9 10 11 12 13 14 15 16 17 18 19 20 21
000
FTUS41 KPBZ 281100
TAFLBE
TAF
KLBE 281131Z 2812/2912 31008KT P6SM SCT015 BKN030
     FM281500 31012G20KT P6SM SCT025
     FM290300 30003KT P6SM SKC=

USA.gov is the U.S. government's official web portal to all federal, state and local government web resources and services.